Time,TemperatureF,DewpointF,PressureIn,WindDirection,WindDirectionDegrees,WindSpeedMPH,WindSpeedGustMPH,Humidity,HourlyPrecipIn,Conditions,Clouds,dailyrainin,SoftwareType,DateUTC
2013-07-12 00:01:00,68.0,65.0,29.92,North,0,0.0,0.0,91,0.00,,,0.67,,2013-07-12 04:01:00,
2013-07-12 00:11:00,68.0,66.0,29.93,North,0,0.0,0.0,92,0.00,,,0.67,,2013-07-12 04:11:00,
2013-07-12 00:22:00,68.0,66.0,29.93,North,0,0.0,0.0,92,0.00,,,0.67,,2013-07-12 04:22:00,
2013-07-12 00:32:00,68.0,66.0,29.93,North,0,0.0,0.0,92,0.00,,,0.67,,2013-07-12 04:32:00,
2013-07-12 00:53:00,68.0,66.0,29.93,NNE,20,0.0,1.0,92,0.00,,,0.67,,2013-07-12 04:53:00,
2013-07-12 01:02:00,67.0,65.0,29.93,North,0,0.0,0.0,92,0.00,,,0.67,,2013-07-12 05:02:00,
2013-07-12 01:12:00,67.0,65.0,29.93,North,0,0.0,0.0,92,0.00,,,0.67,,2013-07-12 05:12:00,
2013-07-12 01:22:00,67.0,65.0,29.93,North,0,0.0,0.0,92,0.00,,,0.67,,2013-07-12 05:22:00,
2013-07-12 01:32:00,67.0,65.0,29.93,North,0,0.0,0.0,92,0.00,,,0.67,,2013-07-12 05:32:00,
2013-07-12 01:53:00,67.0,65.0,29.94,North,0,0.0,0.0,92,0.00,,,0.67,,2013-07-12 05:53:00,
2013-07-12 02:01:00,66.0,64.0,29.95,North,0,0.0,0.0,92,0.00,,,0.67,,2013-07-12 06:01:00,
2013-07-12 02:11:00,66.0,64.0,29.95,North,0,0.0,0.0,92,0.00,,,0.67,,2013-07-12 06:11:00,
2013-07-12 02:42:00,66.0,64.0,29.95,North,0,0.0,0.0,92,0.00,,,0.67,,2013-07-12 06:42:00,
2013-07-12 03:02:00,65.0,63.0,29.96,North,0,0.0,0.0,92,0.00,,,0.67,,2013-07-12 07:02:00,
2013-07-12 03:12:00,65.0,63.0,29.96,North,0,0.0,0.0,92,0.00,,,0.67,,2013-07-12 07:12:00,
2013-07-12 03:22:00,65.0,63.0,29.96,North,0,0.0,0.0,92,0.00,,,0.67,,2013-07-12 07:22:00,
2013-07-12 03:33:00,65.0,63.0,29.96,North,0,0.0,0.0,92,0.00,,,0.67,,2013-07-12 07:33:00,
2013-07-12 03:43:00,65.0,63.0,29.96,North,0,0.0,0.0,92,0.00,,,0.67,,2013-07-12 07:43:00,
2013-07-12 04:02:00,65.0,63.0,29.99,North,0,0.0,0.0,92,0.00,,,0.67,,2013-07-12 08:02:00,
2013-07-12 04:11:00,65.0,63.0,29.99,North,0,0.0,0.0,92,0.00,,,0.67,,2013-07-12 08:11:00,
2013-07-12 04:22:00,65.0,63.0,29.99,North,0,0.0,0.0,92,0.00,,,0.67,,2013-07-12 08:22:00,
2013-07-12 04:32:00,64.0,62.0,29.99,North,0,0.0,0.0,92,0.00,,,0.67,,2013-07-12 08:32:00,
2013-07-12 04:42:00,64.0,62.0,30.00,North,0,0.0,0.0,92,0.00,,,0.67,,2013-07-12 08:42:00,
2013-07-12 05:02:00,64.0,62.0,30.01,North,0,0.0,0.0,93,0.00,,,0.67,,2013-07-12 09:02:00,
2013-07-12 05:13:00,64.0,62.0,30.01,North,0,0.0,0.0,93,0.00,,,0.67,,2013-07-12 09:13:00,
2013-07-12 05:22:00,64.0,62.0,30.01,North,0,0.0,0.0,93,0.00,,,0.67,,2013-07-12 09:22:00,
2013-07-12 05:32:00,64.0,62.0,30.02,North,0,0.0,0.0,93,0.00,,,0.67,,2013-07-12 09:32:00,
2013-07-12 05:43:00,64.0,62.0,30.02,North,0,0.0,0.0,93,0.00,,,0.67,,2013-07-12 09:43:00,
2013-07-12 06:01:00,64.0,62.0,30.03,North,0,0.0,0.0,93,0.00,,,0.67,,2013-07-12 10:01:00,
2013-07-12 06:11:00,65.0,63.0,30.03,North,0,0.0,0.0,93,0.00,,,0.67,,2013-07-12 10:11:00,
2013-07-12 06:22:00,65.0,63.0,30.03,North,0,0.0,0.0,93,0.00,,,0.67,,2013-07-12 10:22:00,
2013-07-12 06:33:00,65.0,63.0,30.03,North,0,0.0,0.0,93,0.00,,,0.67,,2013-07-12 10:33:00,
2013-07-12 06:42:00,65.0,63.0,30.03,North,0,0.0,0.0,93,0.00,,,0.67,,2013-07-12 10:42:00,
2013-07-12 06:52:00,65.0,63.0,30.04,NNE,20,0.0,3.0,93,0.00,,,0.67,,2013-07-12 10:52:00,
2013-07-12 07:02:00,65.0,63.0,30.04,NNE,20,0.0,3.0,93,0.00,,,0.67,,2013-07-12 11:02:00,
2013-07-12 07:12:00,65.0,63.0,30.04,NNE,20,0.0,3.0,93,0.00,,,0.67,,2013-07-12 11:12:00,
2013-07-12 07:22:00,66.0,64.0,30.05,NNE,21,0.0,3.0,93,0.00,,,0.67,,2013-07-12 11:22:00,
2013-07-12 07:32:00,66.0,64.0,30.05,NNE,21,0.0,3.0,93,0.00,,,0.67,,2013-07-12 11:32:00,
2013-07-12 07:43:00,66.0,64.0,30.06,NE,45,0.0,3.0,93,0.00,,,0.67,,2013-07-12 11:43:00,
2013-07-12 08:02:00,66.0,64.0,30.07,North,7,0.0,3.0,93,0.00,,,0.67,,2013-07-12 12:02:00,
2013-07-12 08:11:00,66.0,64.0,30.06,North,3,0.0,4.0,92,0.00,,,0.67,,2013-07-12 12:11:00,
2013-07-12 08:22:00,66.0,64.0,30.06,North,3,0.0,4.0,92,0.00,,,0.67,,2013-07-12 12:22:00,
2013-07-12 08:32:00,66.0,64.0,30.07,North,8,0.0,3.0,92,0.00,,,0.67,,2013-07-12 12:32:00,
2013-07-12 08:43:00,66.0,64.0,30.08,NNE,14,0.0,6.0,92,0.00,,,0.67,,2013-07-12 12:43:00,
2013-07-12 08:50:00,67.0,65.0,30.08,North,3,1.0,6.0,92,0.00,,,0.67,,2013-07-12 12:50:00,
2013-07-12 09:01:00,67.0,65.0,30.08,North,3,1.0,6.0,92,0.00,,,0.67,,2013-07-12 13:01:00,
2013-07-12 09:12:00,67.0,65.0,30.08,North,3,1.0,6.0,92,0.00,,,0.67,,2013-07-12 13:12:00,
2013-07-12 09:22:00,67.0,65.0,30.08,North,3,1.0,6.0,92,0.00,,,0.67,,2013-07-12 13:22:00,
2013-07-12 09:32:00,67.0,65.0,30.08,North,3,1.0,6.0,92,0.00,,,0.67,,2013-07-12 13:32:00,
2013-07-12 09:43:00,67.0,65.0,30.08,North,3,1.0,6.0,92,0.00,,,0.67,,2013-07-12 13:43:00,
2013-07-12 10:02:00,70.0,65.0,30.09,ENE,59,0.0,4.0,84,0.00,,,0.62,,2013-07-12 14:02:00,
2013-07-12 10:12:00,70.0,65.0,30.09,ENE,59,0.0,4.0,84,0.00,,,0.62,,2013-07-12 14:12:00,
2013-07-12 10:22:00,70.0,65.0,30.09,ENE,59,0.0,4.0,84,0.00,,,0.62,,2013-07-12 14:22:00,
2013-07-12 10:32:00,70.0,65.0,30.09,ENE,59,0.0,4.0,84,0.00,,,0.62,,2013-07-12 14:32:00,
2013-07-12 10:44:00,73.0,67.0,30.10,NW,325,0.0,3.0,82,0.00,,,0.62,,2013-07-12 14:44:00,
2013-07-12 10:53:00,73.0,67.0,30.10,NW,325,0.0,3.0,82,0.00,,,0.62,,2013-07-12 14:53:00,
2013-07-12 11:02:00,73.0,67.0,30.10,NW,325,0.0,3.0,82,0.00,,,0.62,,2013-07-12 15:02:00,
2013-07-12 11:11:00,77.0,68.0,30.11,NE,42,1.0,7.0,74,0.00,,,0.62,,2013-07-12 15:11:00,
2013-07-12 11:22:00,77.0,68.0,30.11,NE,42,1.0,7.0,74,0.00,,,0.62,,2013-07-12 15:22:00,
2013-07-12 11:33:00,77.0,68.0,30.11,NE,42,1.0,7.0,74,0.00,,,0.62,,2013-07-12 15:33:00,
2013-07-12 11:43:00,78.0,67.0,30.11,NNE,18,1.0,7.0,68,0.00,,,0.61,,2013-07-12 15:43:00,
2013-07-12 11:53:00,78.0,67.0,30.11,NNE,18,1.0,7.0,68,0.00,,,0.61,,2013-07-12 15:53:00,
2013-07-12 12:02:00,78.0,67.0,30.11,NNE,18,1.0,7.0,68,0.00,,,0.61,,2013-07-12 16:02:00,
2013-07-12 12:11:00,78.0,67.0,30.11,NNE,18,1.0,7.0,68,0.00,,,0.61,,2013-07-12 16:11:00,
2013-07-12 12:22:00,78.0,70.0,30.11,NNW,339,1.0,4.0,76,0.00,,,0.61,,2013-07-12 16:22:00,
2013-07-12 12:43:00,78.0,67.0,30.11,ESE,103,0.0,3.0,70,0.00,,,0.61,,2013-07-12 16:43:00,
2013-07-12 12:59:00,78.0,67.0,30.11,ESE,103,0.0,3.0,70,0.00,,,0.61,,2013-07-12 16:59:00,
2013-07-12 13:07:00,78.0,67.0,30.11,ESE,103,0.0,3.0,70,0.00,,,0.61,,2013-07-12 17:07:00,
2013-07-12 13:14:00,79.0,67.0,30.11,SW,221,0.0,3.0,67,0.00,,,0.61,,2013-07-12 17:14:00,
2013-07-12 13:39:00,79.0,64.0,30.11,SSW,204,1.0,5.0,61,0.00,,,0.61,,2013-07-12 17:39:00,
2013-07-12 13:46:00,79.0,64.0,30.11,SSW,204,1.0,5.0,61,0.00,,,0.61,,2013-07-12 17:46:00,
2013-07-12 13:54:00,81.0,64.0,30.11,SSE,158,1.0,10.0,56,0.00,,,0.61,,2013-07-12 17:54:00,
2013-07-12 14:07:00,79.0,61.0,30.12,SSW,203,1.0,4.0,55,0.00,,,0.61,,2013-07-12 18:07:00,
2013-07-12 14:14:00,79.0,61.0,30.12,SSW,203,1.0,4.0,55,0.00,,,0.61,,2013-07-12 18:14:00,
2013-07-12 14:28:00,79.0,61.0,30.11,East,99,1.0,5.0,54,0.00,,,0.61,,2013-07-12 18:28:00,
2013-07-12 14:34:00,79.0,61.0,30.11,East,99,1.0,5.0,54,0.00,,,0.61,,2013-07-12 18:34:00,
2013-07-12 14:58:00,80.0,61.0,30.11,SSE,153,0.0,5.0,52,0.00,,,0.61,,2013-07-12 18:58:00,
2013-07-12 15:05:00,79.0,62.0,30.11,SE,135,1.0,6.0,56,0.00,,,0.61,,2013-07-12 19:05:00,
2013-07-12 15:15:00,79.0,62.0,30.11,SE,135,1.0,6.0,56,0.00,,,0.61,,2013-07-12 19:15:00,
2013-07-12 15:25:00,80.0,63.0,30.11,North,353,1.0,5.0,56,0.00,,,0.61,,2013-07-12 19:25:00,
2013-07-12 15:34:00,80.0,63.0,30.11,North,353,1.0,5.0,56,0.00,,,0.61,,2013-07-12 19:34:00,
2013-07-12 15:46:00,78.0,62.0,30.12,South,181,1.0,5.0,58,0.00,,,0.61,,2013-07-12 19:46:00,
2013-07-12 15:59:00,78.0,62.0,30.12,South,181,1.0,5.0,58,0.00,,,0.61,,2013-07-12 19:59:00,
2013-07-12 16:15:00,77.0,62.0,30.11,North,352,1.0,7.0,60,0.00,,,0.61,,2013-07-12 20:15:00,
2013-07-12 16:24:00,77.0,62.0,30.11,North,352,1.0,7.0,60,0.00,,,0.61,,2013-07-12 20:24:00,
2013-07-12 16:54:00,77.0,61.0,30.12,SSE,168,1.0,6.0,57,0.00,,,0.61,,2013-07-12 20:54:00,
2013-07-12 17:17:00,76.0,61.0,30.12,South,181,1.0,3.0,60,0.00,,,0.58,,2013-07-12 21:17:00,
2013-07-12 17:35:00,76.0,62.0,30.13,North,350,0.0,7.0,63,0.00,,,0.01,,2013-07-12 21:35:00,
2013-07-12 17:46:00,76.0,62.0,30.13,North,350,0.0,7.0,63,0.00,,,0.01,,2013-07-12 21:46:00,
2013-07-12 17:55:00,76.0,62.0,30.13,North,350,0.0,7.0,63,0.00,,,0.01,,2013-07-12 21:55:00,
2013-07-12 18:04:00,76.0,62.0,30.12,SE,124,0.0,2.0,63,0.00,,,0.00,,2013-07-12 22:04:00,
2013-07-12 18:17:00,76.0,62.0,30.12,SE,124,0.0,2.0,63,0.00,,,0.00,,2013-07-12 22:17:00,
2013-07-12 18:25:00,76.0,62.0,30.12,SE,124,0.0,2.0,63,0.00,,,0.00,,2013-07-12 22:25:00,
2013-07-12 18:33:00,76.0,62.0,30.12,SE,124,0.0,2.0,63,0.00,,,0.00,,2013-07-12 22:33:00,
2013-07-12 18:45:00,75.0,63.0,30.13,SSE,151,0.0,3.0,67,0.00,,,0.00,,2013-07-12 22:45:00,
2013-07-12 18:56:00,75.0,63.0,30.13,SSE,151,0.0,3.0,67,0.00,,,0.00,,2013-07-12 22:56:00,
2013-07-12 19:14:00,74.0,66.0,30.13,SE,130,0.0,1.0,75,0.00,,,0.00,,2013-07-12 23:14:00,
2013-07-12 19:35:00,73.0,66.0,30.13,SE,130,0.0,1.0,79,0.00,,,0.00,,2013-07-12 23:35:00,
2013-07-12 19:45:00,72.0,65.0,30.14,SE,130,0.0,1.0,80,0.00,,,0.00,,2013-07-12 23:45:00,
2013-07-12 19:55:00,72.0,65.0,30.14,SE,130,0.0,1.0,80,0.00,,,0.00,,2013-07-12 23:55:00,
2013-07-12 20:08:00,71.0,64.0,30.14,North,0,0.0,0.0,79,0.00,,,0.00,,2013-07-13 00:08:00,
2013-07-12 20:18:00,71.0,64.0,30.14,North,0,0.0,0.0,79,0.00,,,0.00,,2013-07-13 00:18:00,
2013-07-12 20:23:00,69.0,63.0,30.15,North,0,0.0,0.0,81,0.00,,,0.00,,2013-07-13 00:23:00,
2013-07-12 20:33:00,70.0,64.0,30.14,North,0,0.0,0.0,81,0.00,,,0.00,,2013-07-13 00:33:00,
2013-07-12 20:48:00,69.0,63.0,30.15,North,0,0.0,0.0,81,0.00,,,0.00,,2013-07-13 00:48:00,
2013-07-12 20:55:00,69.0,63.0,30.15,North,0,0.0,0.0,81,0.00,,,0.00,,2013-07-13 00:55:00,
2013-07-12 21:05:00,69.0,63.0,30.15,North,0,0.0,0.0,81,0.00,,,0.00,,2013-07-13 01:05:00,
2013-07-12 21:13:00,69.0,63.0,30.15,North,0,0.0,0.0,81,0.00,,,0.00,,2013-07-13 01:13:00,
2013-07-12 21:41:00,67.0,63.0,30.16,North,0,0.0,0.0,86,0.00,,,0.00,,2013-07-13 01:41:00,
2013-07-12 21:57:00,67.0,63.0,30.16,North,0,0.0,0.0,86,0.00,,,0.00,,2013-07-13 01:57:00,
2013-07-12 22:07:00,67.0,63.0,30.16,North,0,0.0,0.0,86,0.00,,,0.00,,2013-07-13 02:07:00,
2013-07-12 22:15:00,65.0,61.0,30.16,North,0,0.0,0.0,87,0.00,,,0.00,,2013-07-13 02:15:00,
2013-07-12 22:26:00,65.0,61.0,30.16,North,0,0.0,0.0,87,0.00,,,0.00,,2013-07-13 02:26:00,
2013-07-12 23:06:00,64.0,61.0,30.18,North,0,0.0,0.0,89,0.00,,,0.00,,2013-07-13 03:06:00,
2013-07-12 23:13:00,64.0,61.0,30.18,North,0,0.0,0.0,89,0.00,,,0.00,,2013-07-13 03:13:00,
2013-07-12 23:28:00,64.0,61.0,30.18,North,0,0.0,0.0,89,0.00,,,0.00,,2013-07-13 03:28:00,
2013-07-12 23:37:00,64.0,61.0,30.18,North,0,0.0,0.0,89,0.00,,,0.00,,2013-07-13 03:37:00,
2013-07-12 23:45:00,64.0,61.0,30.18,North,0,0.0,0.0,89,0.00,,,0.00,,2013-07-13 03:45:00,